Wind_Speed
1 3 8 10 6 2 1 3 11 17 10 7 18 18 20 14 3 3 6 9 11 13 15 17 18 19 21 18 13 11 12 11 12 19 23 30 35 37 37 35 34 35 32 32
1 7 7 2 5 4 4 7 11 16 10 6 17 20 18 8 2 5 8 10 11 14 17 19 20 20 21 20 20 23 19 16 11 13 17 20 26 30 33 35 33 31 31 30
2 1 3 3 3 2 4 7 8 15 19 9 13 15 4 3 9 11 11 10 13 15 18 21 23 25 23 21 20 20 19 19 20 21 17 9 4 8 16 16 23 25 25 27
4 2 2 1 5 3 11 5 12 15 10 9 7 15 9 3 8 9 11 13 14 17 19 22 24 23 22 18 14 11 12 13 14 13 12 15 15 12 15 9 5 8 12 21
4 3 4 9 8 6 10 6 8 11 14 13 14 9 2 9 6 7 9 12 16 16 18 20 22 23 22 21 19 16 15 14 14 14 11 9 11 11 9 10 11 13 10 9
6 2 4 6 6 5 5 6 12 1 3 6 6 13 3 3 3 7 10 14 16 18 18 21 25 27 28 27 28 28 28 22 19 16 14 14 13 12 14 14 16 19 16 18
6 5 2 1 3 2 3 12 7 3 2 5 1 5 7 8 10 11 13 14 16 15 18 20 24 27 28 29 27 27 27 27 29 25 20 16 19 17 17 18 19 19 18 24
1 4 2 2 3 1 9 5 4 8 6 11 8 10 2 9 12 14 13 14 16 17 18 21 26 29 31 31 30 29 28 28 26 25 24 23 21 21 22 24 26 24 25 27
4 5 2 2 1 1 4 5 2 6 11 8 6 3 3 7 8 9 14 16 19 18 20 24 27 27 28 29 29 30 32 30 28 29 22 17 19 18 16 14 18 22 20 26
1 6 3 3 1 3 5 3 5 1 5 7 7 13 5 11 3 7 13 20 21 20 24 27 26 26 28 31 32 36 36 31 28 24 14 16 18 17 17 17 17 17 21 17
4 5 1 1 6 13 4 5 3 3 3 5 10 4 7 11 4 6 18 23 20 19 21 22 24 24 26 24 24 35 39 31 23 18 14 13 14 15 14 16 16 18 17 15
2 2 4 9 5 2 3 5 5 5 5 4 5 8 11 6 2 18 19 17 15 16 20 21 23 23 27 26 26 35 35 28 20 15 10 10 8 10 12 12 14 16 18 16
6 3 4 3 2 2 1 1 3 1 1 7 8 8 9 10 23 22 10 11 14 16 20 21 22 26 29 28 33 40 30 22 14 11 7 8 11 13 15 16 17 18 18 17
8 3 8 13 14 2 5 8 6 7 5 10 12 20 10 19 18 18 10 13 16 19 18 19 24 24 31 30 34 39 23 18 10 7 5 8 12 16 17 18 18 19 19 19
2 4 5 13 16 10 9 7 11 13 12 9 13 16 18 16 7 9 13 15 16 17 20 22 26 28 30 32 37 39 19 17 8 7 4 10 15 18 20 20 19 18 18 18
2 1 0 4 9 10 10 10 12 14 14 15 17 16 5 11 9 13 14 16 19 17 25 26 27 29 33 37 38 41 25 5 8 2 6 10 14 18 21 22 20 19 18 18
5 3 2 5 1 5 10 5 9 4 6 7 11 12 11 13 13 16 15 21 17 21 24 29 28 28 30 35 38 39 7 5 1 3 9 13 16 20 24 26 24 20 19 19
5 4 3 2 3 5 3 1 2 4 3 8 8 11 13 13 19 22 19 13 19 19 26 25 27 26 28 32 31 29 8 8 11 12 14 18 20 23 26 28 29 26 23 22
2 4 2 3 4 7 4 4 3 1 7 7 5 9 12 14 12 21 14 10 20 25 22 22 24 22 21 28 24 24 23 20 16 15 15 18 21 24 28 29 30 30 26 23
3 4 3 3 3 5 2 4 6 4 5 2 4 10 14 9 9 12 18 25 23 27 19 20 22 21 22 24 21 18 23 19 17 17 18 19 20 21 24 25 27 30 28 24
5 3 7 3 4 7 6 9 8 2 1 6 10 15 12 5 11 23 27 26 22 15 16 20 18 18 21 22 22 22 23 23 23 20 19 19 19 22 23 23 25 26 28 23
7 7 4 3 4 9 13 8 5 4 14 14 19 17 14 11 13 18 18 14 15 12 15 16 16 18 20 19 20 19 22 23 23 20 19 19 19 20 21 22 22 23 25 23
4 5 4 8 5 4 20 7 9 13 17 20 13 13 13 11 12 15 14 13 11 13 16 15 15 17 16 18 20 20 24 24 23 22 22 21 22 22 23 23 21 21 22 22
4 5 3 1 6 13 15 24 24 18 19 17 15 15 12 10 11 10 11 11 11 14 15 15 15 15 17 18 21 19 24 25 25 24 23 23 24 25 24 23 24 20 20 20
4 8 6 6 11 13 20 24 25 14 16 15 18 13 8 11 10 9 10 10 12 15 12 13 13 14 15 16 16 21 24 25 26 26 25 26 26 27 26 20 22 21 17 15
9 6 5 6 8 7 9 10 8 12 15 13 11 8 8 10 10 11 11 13 16 14 10 11 11 13 14 14 17 18 20 22 24 25 27 27 28 29 29 25 25 20 15 13
Wind_Direction
100 207 223 229 228 21 82 264 279 286 268 271 267 269 275 280 154 143 89 72 59 48 49 52 47 45 47 40 21 5 353 314 276 266 263 255 251 251 246 250 257 255 251 243
100 246 245 170 179 215 240 274 287 283 289 220 280 272 260 250 119 107 86 67 51 42 40 39 38 39 40 45 47 46 45 19 313 277 257 251 245 246 240 247 248 248 254 250
202 314 60 176 155 232 241 266 287 288 312 273 294 274 208 103 110 90 71 67 55 45 37 34 32 32 36 34 32 35 37 39 32 31 1 306 242 221 223 237 242 244 247 248
254 305 192 162 277 223 289 234 276 289 304 290 3 294 287 145 109 79 69 61 52 39 33 28 22 21 19 20 22 23 16 8 1 8 0 355 0 1 357 338 334 291 254 243
269 236 283 289 268 177 273 308 291 282 267 290 252 265 13 120 126 102 70 55 41 32 25 17 11 9 8 360 356 347 340 335 336 340 339 331 325 321 302 310 321 321 308 313
244 248 236 244 265 228 309 308 295 263 259 248 277 229 50 5 152 116 78 51 26 12 9 2 357 352 349 346 342 341 339 328 319 313 313 306 296 296 294 293 287 286 296 279
316 274 312 347 285 81 50 341 312 270 232 259 356 277 289 101 104 91 73 29 11 2 354 349 345 342 338 334 331 327 325 324 319 307 301 292 288 284 286 285 276 260 264 272
263 319 352 218 133 351 326 274 259 290 287 287 285 258 135 122 103 87 36 12 359 351 347 342 337 332 328 323 320 317 309 303 301 299 299 295 292 286 279 283 283 279 272 264
269 241 250 251 10 260 127 216 304 283 277 283 235 107 169 155 104 43 8 0 355 345 333 332 328 322 321 319 319 322 318 307 303 302 290 276 283 293 295 291 286 284 280 267
49 292 282 338 184 249 235 170 257 27 282 267 252 268 233 173 122 357 355 350 340 331 329 324 321 325 328 325 319 321 316 305 298 299 285 286 290 293 295 294 287 287 274 269
158 181 160 43 215 261 214 236 223 303 236 264 295 270 149 148 142 4 344 328 316 310 310 314 319 319 316 315 309 320 321 304 293 285 278 282 291 300 298 291 288 279 280 273
104 149 238 262 324 60 285 251 229 228 219 235 276 282 155 119 294 343 326 314 304 304 309 310 311 314 317 320 315 329 319 304 294 279 283 297 315 320 316 309 304 297 291 285
162 214 293 242 137 59 135 171 169 135 169 224 274 285 180 313 333 329 319 311 307 309 316 318 322 322 322 318 321 326 310 310 300 250 262 302 326 326 331 332 321 318 316 305
151 208 220 259 279 261 235 206 174 181 233 275 254 289 308 317 307 320 322 315 315 317 320 322 322 321 323 319 325 324 315 314 331 291 272 310 330 336 339 336 330 327 318 306
149 241 219 259 274 276 256 243 208 213 239 242 296 295 296 308 321 315 312 318 323 322 326 324 324 325 325 321 327 324 325 322 313 306 304 332 342 343 341 340 340 335 325 313
101 272 291 270 266 263 266 259 241 249 262 273 276 283 358 325 306 302 313 321 322 323 327 326 323 328 326 332 333 328 333 306 342 10 331 350 350 347 346 343 342 343 338 328
167 187 161 276 45 309 272 226 225 193 208 274 287 308 300 303 296 297 314 318 314 321 324 324 320 328 330 336 334 341 338 331 297 24 17 6 355 353 353 354 351 347 341 334
163 165 186 295 300 242 106 91 180 231 275 270 286 301 310 296 294 296 309 312 323 320 323 323 323 328 335 339 342 5 27 70 53 37 23 2 353 351 355 356 356 348 343 338
127 122 168 256 236 307 195 165 166 261 289 272 247 288 306 315 300 295 312 312 320 323 321 318 321 330 334 335 350 359 25 38 30 16 1 353 353 351 351 350 350 349 340 333
135 105 185 151 241 270 186 195 154 129 275 204 214 276 283 314 305 315 312 312 316 322 314 321 325 334 337 343 356 355 0 6 6 351 344 337 336 337 338 340 340 341 340 330
150 168 209 198 240 275 230 164 161 184 260 278 304 292 282 272 284 310 318 310 311 321 327 332 332 334 340 346 349 343 339 343 342 336 333 333 333 331 325 329 331 332 332 329
175 177 190 153 207 258 162 134 204 231 303 289 298 298 293 298 312 330 338 340 338 336 332 329 329 337 341 346 349 349 350 344 337 334 333 332 332 330 327 322 321 323 327 329
212 204 184 206 223 245 191 208 215 293 291 296 289 304 295 305 317 326 325 337 333 331 332 330 334 330 338 342 350 348 350 352 350 349 343 338 332 330 324 321 316 318 322 325
228 187 232 239 242 238 237 239 270 279 287 288 292 297 284 288 305 306 315 327 325 326 326 326 332 335 337 335 342 343 347 354 355 352 350 347 348 349 349 347 341 323 319 319
206 161 219 258 273 268 261 264 265 278 282 283 299 288 279 286 295 302 308 318 319 322 323 322 325 329 330 330 336 342 349 351 353 353 352 351 350 353 346 337 338 332 324 316
190 200 199 236 240 248 268 252 278 292 280 275 282 286 287 281 286 291 297 312 318 321 321 321 323 321 321 325 329 339 346 348 346 346 351 352 352 352 350 344 340 338 334 324
Height
1497 1497 1496 1494 1499 1501 1499 1499 1495 1482 1484 1487 1478 1472 1465 1466 1469 1472 1474 1476 1476 1475 1474 1471 1469 1466 1462 1457 1453 1450 1449 1450 1450 1449 1449 1448 1448 1451 1453 1457 1461 1464 1467 1468
1499 1497 1491 1495 1498 1499 1501 1500 1494 1483 1479 1483 1469 1463 1462 1462 1467 1472 1475 1476 1476 1475 1474 1472 1469 1466 1463 1460 1458 1455 1452 1452 1451 1450 1447 1446 1445 1446 1446 1450 1454 1458 1461 1462
1499 1495 1493 1494 1497 1498 1497 1497 1492 1489 1477 1476 1471 1449 1458 1467 1470 1473 1476 1478 1477 1476 1475 1472 1469 1467 1464 1463 1460 1458 1456 1454 1454 1452 1451 1448 1443 1441 1442 1444 1447 1448 1452 1455
1497 1493 1493 1494 1494 1495 1496 1488 1488 1487 1488 1484 1477 1449 1448 1465 1474 1476 1478 1479 1479 1479 1477 1475 1472 1469 1466 1464 1463 1460 1459 1455 1454 1451 1449 1448 1445 1443 1443 1444 1442 1444 1445 1449
1495 1493 1491 1493 1490 1490 1488 1486 1485 1483 1483 1483 1479 1478 1447 1469 1476 1479 1482 1483 1483 1481 1479 1476 1473 1471 1469 1467 1464 1461 1457 1456 1453 1450 1448 1446 1444 1443 1443 1442 1442 1440 1446 1445
1489 1490 1489 1485 1483 1485 1484 1484 1480 1487 1485 1485 1470 1472 1459 1473 1476 1480 1482 1483 1482 1480 1478 1477 1474 1471 1468 1465 1462 1458 1456 1453 1451 1447 1444 1444 1442 1440 1439 1437 1437 1438 1437 1445
1489 1486 1484 1483 1484 1485 1485 1485 1484 1478 1481 1470 1472 1471 1449 1479 1479 1480 1482 1482 1481 1479 1477 1474 1471 1467 1464 1461 1458 1454 1452 1449 1445 1443 1443 1440 1439 1435 1433 1434 1433 1432 1426 1432
1496 1492 1484 1484 1482 1485 1486 1490 1497 1492 1471 1459 1462 1459 1462 1479 1481 1482 1482 1482 1481 1479 1477 1475 1471 1467 1462 1457 1453 1448 1444 1440 1438 1435 1435 1437 1435 1431 1426 1425 1428 1425 1422 1424
1491 1493 1485 1485 1484 1485 1491 1492 1489 1491 1476 1476 1447 1475 1480 1481 1483 1484 1484 1482 1481 1479 1475 1470 1466 1462 1458 1453 1448 1443 1438 1434 1431 1431 1427 1426 1431 1425 1422 1417 1419 1418 1412 1419
1489 1494 1484 1486 1486 1484 1484 1485 1492 1496 1491 1471 1438 1439 1447 1478 1485 1484 1482 1481 1478 1475 1471 1467 1463 1459 1455 1451 1445 1439 1432 1426 1424 1424 1421 1424 1421 1418 1415 1414 1414 1411 1417 1410
1484 1491 1489 1487 1485 1481 1485 1486 1488 1493 1494 1477 1459 1441 1469 1476 1480 1481 1482 1479 1475 1472 1468 1464 1461 1456 1451 1445 1440 1433 1427 1422 1417 1418 1418 1414 1415 1414 1410 1412 1410 1410 1410 1401
1483 1487 1489 1481 1481 1483 1483 1483 1483 1493 1483 1484 1481 1449 1473 1478 1479 1477 1477 1474 1471 1469 1465 1460 1454 1450 1447 1441 1434 1427 1419 1416 1414 1413 1414 1414 1409 1412 1411 1407 1405 1405 1400 1390
1483 1487 1483 1473 1484 1484 1483 1484 1485 1497 1500 1484 1478 1453 1476 1476 1474 1475 1473 1471 1469 1466 1463 1459 1455 1449 1441 1436 1430 1422 1415 1410 1408 1408 1409 1409 1407 1409 1406 1400 1398 1394 1387 1387
1479 1482 1477 1471 1465 1480 1487 1486 1486 1488 1486 1470 1470 1464 1471 1474 1470 1470 1472 1470 1467 1465 1461 1456 1453 1446 1440 1433 1426 1418 1408 1404 1404 1403 1405 1406 1405 1403 1399 1396 1392 1387 1385 1383
1480 1480 1481 1476 1477 1482 1483 1483 1483 1483 1477 1480 1466 1473 1472 1472 1473 1472 1471 1468 1465 1460 1457 1454 1449 1443 1435 1429 1420 1410 1402 1402 1401 1401 1402 1402 1400 1397 1394 1391 1387 1383 1381 1378
1483 1479 1487 1487 1482 1482 1482 1479 1478 1477 1478 1478 1474 1471 1474 1472 1469 1467 1464 1461 1459 1455 1451 1447 1444 1439 1431 1422 1411 1403 1397 1398 1398 1398 1399 1398 1397 1394 1391 1387 1383 1379 1376 1374
1483 1484 1487 1471 1484 1484 1480 1478 1476 1475 1474 1475 1474 1470 1471 1468 1466 1463 1460 1458 1455 1453 1448 1442 1439 1435 1427 1418 1408 1399 1394 1395 1395 1396 1396 1394 1392 1390 1386 1382 1378 1374 1371 1368
1480 1485 1487 1482 1484 1479 1472 1473 1473 1474 1474 1472 1472 1470 1468 1468 1466 1464 1461 1457 1454 1449 1444 1439 1435 1431 1424 1416 1409 1400 1395 1392 1394 1394 1393 1391 1390 1387 1384 1380 1375 1371 1367 1363
1477 1482 1486 1485 1484 1469 1469 1474 1472 1475 1470 1468 1469 1467 1466 1464 1460 1459 1457 1454 1451 1446 1440 1437 1433 1429 1424 1417 1410 1403 1399 1395 1394 1393 1392 1390 1388 1386 1382 1378 1373 1368 1363 1359
1479 1484 1484 1491 1490 1480 1468 1472 1472 1472 1468 1466 1468 1466 1464 1461 1455 1450 1451 1449 1445 1441 1436 1434 1429 1425 1421 1416 1411 1407 1399 1395 1393 1392 1390 1389 1386 1383 1380 1377 1373 1368 1361 1356
1478 1485 1484 1489 1487 1475 1465 1470 1472 1475 1465 1463 1461 1460 1459 1458 1453 1448 1445 1442 1440 1436 1434 1431 1427 1424 1419 1414 1410 1404 1400 1395 1392 1390 1388 1385 1382 1379 1376 1372 1369 1364 1359 1353
1469 1477 1481 1491 1494 1479 1461 1470 1470 1459 1457 1458 1455 1453 1452 1448 1448 1446 1443 1440 1436 1434 1433 1430 1426 1422 1418 1414 1409 1405 1399 1394 1390 1387 1385 1381 1378 1374 1371 1367 1363 1360 1355 1349
1470 1466 1469 1469 1461 1457 1456 1452 1455 1454 1454 1450 1448 1444 1448 1443 1443 1441 1441 1438 1436 1434 1432 1428 1425 1422 1418 1414 1409 1404 1399 1393 1389 1385 1381 1377 1373 1369 1365 1361 1358 1355 1351 1347
1465 1465 1463 1464 1450 1454 1455 1453 1452 1451 1449 1448 1446 1441 1437 1440 1439 1438 1438 1435 1434 1432 1429 1426 1422 1420 1417 1413 1408 1404 1398 1392 1387 1383 1378 1374 1368 1364 1360 1358 1354 1350 1347 1344
1460 1462 1460 1459 1452 1452 1449 1447 1446 1447 1447 1447 1448 1441 1435 1437 1435 1435 1434 1432 1430 1428 1425 1423 1420 1419 1416 1412 1408 1402 1396 1392 1387 1382 1377 1372 1366 1361 1357 1355 1350 1347 1344 1341
1451 1448 1452 1445 1445 1447 1448 1446 1444 1442 1441 1437 1438 1437 1435 1435 1433 1432 1430 1428 1426 1424 1423 1420 1418 1416 1414 1411 1406 1402 1396 1391 1386 1381 1375 1369 1363 1358 1354 1350 1346 1344 1340 1338